Gulkana, AK

6:52 AM AKDT on June 29, 2017 (GMT -0800)
Gulkana

Weather History for PAGK - October, 2012

Change the Weather History Date:

Monday, October 22, 2012

  Actual Average Record
Temperature  
Mean Temperature 2 °F -  
Max Temperature 19 °F 29 °F 49 °F (1987)
Min Temperature -14 °F 13 °F -20 °F (1958)
Degree Days  
Heating Degree Days 62    
Moisture  
Dew Point -8 °F    
Average Humidity 73    
Maximum Humidity 85    
Minimum Humidity 40    
Precipitation  
Precipitation 0.00 in - - ()
Snow  
Snow 0.00 in - - ()
Snow Depth 1.00 in    
Sea Level Pressure  
Sea Level Pressure 30.44 in    
Wind  
Wind Speed 1 mph (NW)    
Max Wind Speed 4 mph    
Max Gust Speed -    
Visibility 10 miles    
Events      
Averages and records for this station are not official NWS values.
T = Trace of Precipitation, MM = Missing Value Source: NWS Daily Summary

Daily Weather History Graph

Daily Weather History Graph

Search for Another Location

Airport or City:

Trip Planner

Search our weather history database for the weather conditions in past years. The results will help you decide how hot, cold, wet, or windy it might be!

Date:

Astronomy

Oct. 22, 2012 Rise Set
Actual Time 8:47 AM AKDT 6:03 PM AKDT
Civil Twilight 8:01 AM AKDT 6:49 PM AKDT
Nautical Twilight 7:09 AM AKDT 7:41 PM AKDT
Astronomical Twilight 6:17 AM AKDT 8:33 PM AKDT
Moon 4:04 PM AKDT (10/22) No Moon Set
Length of Visible Light 10h 48m
Length of Day
9h 15m
First Quarter, 58% of the Moon is Illuminated
Oct 22
First Quarter
Oct 29
Full
Nov 6
Last Quarter
Nov 13
New
Nov 20
First Quarter

Hourly Weather History & Observations

Time (AKDT) Temp. Windchill Dew Point Humidity Pressure Visibility Wind Dir Wind Speed Gust Speed Precip Events Conditions
12:53 AM -7.1 °F - -11.9 °F 79% 30.46 in 10.0 mi Calm Calm - N/A   Clear
1:53 AM -9.0 °F -18.2 °F -13.0 °F 83% 30.46 in 10.0 mi West 3.5 mph - N/A   Clear
2:53 AM -9.0 °F - -14.1 °F 79% 30.45 in 10.0 mi Calm Calm - N/A   Clear
3:53 AM -11.9 °F -21.5 °F -16.1 °F 82% 30.46 in 10.0 mi NW 3.5 mph - N/A   Clear
4:53 AM -11.0 °F - -16.1 °F 78% 30.45 in 10.0 mi Calm Calm - N/A   Clear
5:53 AM -11.9 °F - -17.0 °F 78% 30.46 in 10.0 mi Calm Calm - N/A   Clear
6:02 AM -11.2 °F - -16.6 °F 77% 30.28 in 10.0 mi Calm Calm - N/A   Clear
6:53 AM -13.0 °F - -18.0 °F 78% 30.48 in 10.0 mi Calm Calm - N/A   Clear
7:53 AM -13.0 °F - -18.0 °F 78% 30.49 in 10.0 mi Calm Calm - N/A   Clear
8:53 AM -13.0 °F -22.7 °F -18.0 °F 78% 30.49 in 10.0 mi North 3.5 mph - N/A   Clear
9:53 AM -6.0 °F - -11.0 °F 79% 30.48 in 10.0 mi Calm Calm - N/A   Clear
10:53 AM 1.9 °F -5.6 °F -4.0 °F 76% 30.48 in 10.0 mi North 3.5 mph - N/A   Clear
11:53 AM 6.1 °F - -0.9 °F 73% 30.47 in 10.0 mi Calm Calm - N/A   Clear
12:53 PM 10.9 °F - 1.9 °F 67% 30.45 in 10.0 mi Calm Calm - N/A   Clear
1:53 PM 15.1 °F - 3.9 °F 61% 30.44 in 10.0 mi Calm Calm - N/A   Clear
2:53 PM 18.0 °F - 5.0 °F 57% 30.42 in 10.0 mi Calm Calm - N/A   Clear
3:53 PM 19.0 °F - 5.0 °F 54% 30.41 in 10.0 mi Calm Calm - N/A   Clear
4:53 PM 19.0 °F - 5.0 °F 54% 30.40 in 10.0 mi Calm Calm - N/A   Clear
5:53 PM 12.9 °F - 3.9 °F 67% 30.41 in 10.0 mi Calm Calm - N/A   Clear
6:53 PM 6.1 °F - -0.0 °F 76% 30.43 in 10.0 mi Calm Calm - N/A   Clear
8:53 PM -2.0 °F - -7.1 °F 79% 30.45 in 10.0 mi Calm Calm - N/A   Clear
9:28 PM -4.0 °F - -7.6 °F 85% 30.23 in 10.0 mi Calm Calm - N/A   Clear
9:53 PM -4.0 °F - -8.0 °F 83% 30.45 in 10.0 mi Calm Calm - N/A   Clear
10:53 PM -6.0 °F - -9.9 °F 83% 30.45 in 10.0 mi Calm Calm - N/A   Clear
11:53 PM -7.1 °F -15.9 °F -11.9 °F 79% 30.45 in 10.0 mi NW 3.5 mph - N/A   Clear